Regional Weather Roundup
Issued by NWS State College, PA

Current Version | Previous Version | Text Only | Print | Product List | Glossary On
Versions: 1 2 3 4 5 6 7 8 9 10 11 12 13 14 15 16 17 18 19 20 21 22 23 24 25 26 27 28 29 30 31 32 33 34 35 36 37 38 39 40 41 42 43 44 45 46 47 48 49 50
000
ASUS41 KCTP 010010
RWRCTP

REGIONAL WEATHER ROUNDUP
NATIONAL WEATHER SERVICE STATE COLLEGE PA
800 PM EDT FRI OCT 31 2014

Note: "fair" indicates few or no clouds below 12,000 feet with no
significant weather and/or obstructions to visibility.

* = STATION THAT DOES NOT REPORT PRECIPITATION /E.G. RAIN...SNOW...ETC/
    THUNDER OR FOG.

PAZ002>004-007>009-013>016-020>023-029>032-010100-
WESTERN PENNSYLVANIA

CITY           SKY/WX    TMP DP  RH WIND       PRES   REMARKS
ERIE           CLOUDY    45  39  79 SE6       29.91R
MEADVILLE      LGT RAIN  41  38  89 E3        29.89R FOG
FRANKLIN*      CLOUDY    39  36  87 CALM      29.90R
NEW CASTLE       N/A     41  41 100 CALM      29.91R FOG
BEAVER COUNTY  NOT AVBL
BUTLER*        CLOUDY    41  37  87 E6        29.90S
PITTSBURGH INT LGT RAIN  42  40  92 NE3       29.88R
PITTSBURGH     LGT RAIN  42  38  85 N3        29.87R FOG
INDIANA*       CLOUDY    41  41 100 NE6       29.91S
LATROBE        LGT RAIN  41  41 100 VRB6      29.89S FOG
WASHINGTON CO* CLOUDY    41  37  87 CALM      29.89S
$$

PAZ004>006-010>012-017>019-024>028-033>037-041-042-045-046-049>053-010100-
CENTRAL PENNSYLVANIA

CITY           SKY/WX    TMP DP  RH WIND       PRES   REMARKS
BRADFORD       LGT RAIN  37  35  92 E5        29.89S
DUBOIS         CLOUDY    39  37  92 E5        29.88R
CLEARFIELD     LGT RAIN  40  39  97 NW3       29.89S
JOHNSTOWN      LGT RAIN  39  36  89 NE5       29.84S FOG
ALTOONA        CLOUDY    45  35  68 NE3       29.86S
STATE COLLEGE  CLOUDY    45  36  70 CALM      29.88S
WILLIAMSPORT   CLOUDY    48  34  58 CALM      29.90R
SELINSGROVE    CLOUDY    48  38  68 CALM      29.90S
FT INDIANTOWN  MOCLDY    44  34  69 NE3       29.90R
CAPITAL CITY   CLOUDY    48  36  63 CALM      29.88F
HARRISBURG     MOCLDY    46  36  68 CALM      29.88S
YORK           CLOUDY    46  38  73 W3        29.87F
$$

PAZ038>040-043-044-047-048-054-055-060>062-067>071-010100-
EASTERN PENNSYLVANIA

CITY           SKY/WX    TMP DP  RH WIND       PRES   REMARKS
SCRANTON       CLOUDY    49  33  54 VRB7      29.90R
MOUNT POCONO   CLOUDY    43  32  65 E7        29.89S
ALLENTOWN      CLOUDY    48  36  63 NE5       29.90F
QUAKERTOWN*    CLOUDY    48  36  61 N3        29.90S
READING        CLOUDY    50  35  56 E6        29.89S
LANCASTER      CLOUDY    47  37  68 E5        29.89S
COATESVILLE    MOCLDY    46  37  71 NE3       29.88F
POTTSTOWN      CLOUDY    48  36  63 CALM      29.90F
BLUE BELL      CLOUDY    50  36  57 CALM      29.88S
DOYLESTOWN     CLOUDY    47  36  65 N5        29.88F
WILLOW GROVE   NOT AVBL
NORTH PHILA    CLOUDY    51  34  52 N8        29.89F
PHILADELPHIA   CLOUDY    51  35  54 NE13      29.88F
$$



USA.gov is the U.S. government's official web portal to all federal, state and local government web resources and services.